Weather History for PAZK - November, 2012

Change the Weather History Date:

Friday, November 9, 2012

  Actual Average Record
Temperature  
Mean Temperature 6 °F -  
Max Temperature 12 °F 14 °F 26 °F (2002)
Min Temperature 1 °F 5 °F -16 °F (2001)
Degree Days  
Heating Degree Days 58    
Moisture  
Dew Point 5 °F    
Average Humidity 91    
Maximum Humidity 100    
Minimum Humidity 79    
Precipitation  
Precipitation 0.00 in - - ()
Sea Level Pressure  
Sea Level Pressure 29.89 in    
Wind  
Wind Speed 4 mph (ENE)    
Max Wind Speed 7 mph    
Max Gust Speed -    
Visibility 8 miles    
Events      
Averages and records for this station are not official NWS values.
T = Trace of Precipitation, MM = Missing Value Source: NWS Daily Summary

Daily Weather History Graph

Daily Weather History Graph

Search for Another Location

Airport or City:

Trip Planner

Search our weather history database for the weather conditions in past years. The results will help you decide how hot, cold, wet, or windy it might be!

Date:

Astronomy

Nov. 09, 2012 Rise Set
Actual Time 8:44 AM AKST 4:19 PM AKST
Civil Twilight 7:53 AM AKST 5:10 PM AKST
Nautical Twilight 6:58 AM AKST 6:05 PM AKST
Astronomical Twilight 6:07 AM AKST 6:56 PM AKST
Moon 2:34 AM AKST (11/9) 2:46 PM AKST (11/9)
Length of Visible Light 9h 17m
Length of Day
7h 34m
Waning Crescent, 22% of the Moon is Illuminated
Nov 9
Waning Crescent
Nov 13
New
Nov 20
First Quarter
Nov 28
Full
Dec 6
Last Quarter

Hourly Weather History & Observations

Time (AKST) Temp. Windchill Dew Point Humidity Pressure Visibility Wind Dir Wind Speed Gust Speed Precip Events Conditions
12:16 AM 3.2 °F -7.8 °F 1.4 °F 92% 30.09 in 10.0 mi ENE 5.8 mph - N/A   Overcast
12:36 AM 1.4 °F - -0.4 °F 92% 30.09 in 10.0 mi Calm Calm - N/A   Overcast
12:56 AM 1.4 °F -9.9 °F 1.4 °F 100% 30.09 in 10.0 mi East 5.8 mph - N/A   Overcast
1:16 AM 1.4 °F - -0.4 °F 92% 30.09 in 10.0 mi Calm Calm - N/A   Overcast
1:36 AM 1.4 °F -6.2 °F -0.4 °F 92% 30.08 in 10.0 mi ESE 3.5 mph - N/A   Overcast
1:56 AM 1.4 °F -6.2 °F -0.4 °F 92% 30.07 in 10.0 mi East 3.5 mph - N/A   Overcast
2:16 AM 1.4 °F -6.2 °F -2.2 °F 85% 30.06 in 10.0 mi East 3.5 mph - N/A   Scattered Clouds
2:36 AM 1.4 °F -8.3 °F -0.4 °F 92% 30.06 in 10.0 mi East 4.6 mph - N/A   Mostly Cloudy
2:56 AM 1.4 °F -6.2 °F -0.4 °F 92% 30.05 in 10.0 mi East 3.5 mph - N/A   Overcast
3:16 AM 1.4 °F -6.2 °F -0.4 °F 92% 30.04 in 10.0 mi ENE 3.5 mph - N/A   Overcast
3:36 AM 3.2 °F -6.2 °F 1.4 °F 92% 30.04 in 10.0 mi East 4.6 mph - N/A   Overcast
3:56 AM 3.2 °F -6.2 °F 1.4 °F 92% 30.03 in 10.0 mi ENE 4.6 mph - N/A   Overcast
4:16 AM 3.2 °F -6.2 °F 1.4 °F 92% 30.02 in 10.0 mi ENE 4.6 mph - N/A   Overcast
4:36 AM 3.2 °F -6.2 °F 1.4 °F 92% 30.02 in 10.0 mi ENE 4.6 mph - N/A   Overcast
4:56 AM 3.2 °F -7.8 °F 1.4 °F 92% 30.01 in 10.0 mi ENE 5.8 mph - N/A   Overcast
5:16 AM 3.2 °F -4.2 °F 1.4 °F 92% 30.01 in 10.0 mi ENE 3.5 mph - N/A   Overcast
5:36 AM 3.2 °F -4.2 °F 1.4 °F 92% 30.00 in 10.0 mi NE 3.5 mph - N/A   Overcast
5:56 AM 3.2 °F -4.2 °F 1.4 °F 92% 30.00 in 10.0 mi ENE 3.5 mph - N/A   Overcast
6:16 AM 5.0 °F -4.1 °F 3.2 °F 92% 29.99 in 10.0 mi NE 4.6 mph - N/A   Overcast
6:36 AM 5.0 °F -4.1 °F 1.4 °F 85% 29.98 in 10.0 mi ENE 4.6 mph - N/A   Overcast
6:56 AM 5.0 °F -4.1 °F 3.2 °F 92% 29.98 in 10.0 mi NE 4.6 mph - N/A   Overcast
7:16 AM 5.0 °F -5.6 °F 3.2 °F 92% 29.96 in 10.0 mi NE 5.8 mph - N/A   Overcast
7:36 AM 5.0 °F -4.1 °F 3.2 °F 92% 29.96 in 10.0 mi NE 4.6 mph - N/A   Overcast
7:56 AM 5.0 °F -4.1 °F 1.4 °F 85% 29.96 in 10.0 mi NNE 4.6 mph - N/A   Overcast
8:16 AM 6.8 °F -0.1 °F 1.4 °F 79% 29.96 in 10.0 mi NNE 3.5 mph - N/A   Overcast
8:36 AM 6.8 °F -2.0 °F 3.2 °F 85% 29.95 in 10.0 mi NE 4.6 mph - N/A   Overcast
8:56 AM 6.8 °F -2.0 °F 3.2 °F 85% 29.94 in 3.0 mi ENE 4.6 mph - N/A   Overcast
9:16 AM 6.8 °F -2.0 °F 3.2 °F 85% 29.94 in 1.2 mi ENE 4.6 mph - N/A   Overcast
9:36 AM 6.8 °F - 3.2 °F 85% 29.94 in 1.0 mi Calm Calm - N/A   Overcast
9:56 AM 6.8 °F -0.1 °F 3.2 °F 85% 29.93 in 1.0 mi ENE 3.5 mph - N/A   Overcast
10:16 AM 6.8 °F -3.5 °F 3.2 °F 85% 29.91 in 1.5 mi NE 5.8 mph - N/A   Overcast
10:36 AM 6.8 °F -0.1 °F 3.2 °F 85% 29.91 in 2.5 mi NNE 3.5 mph - N/A   Overcast
10:56 AM 8.6 °F - 5.0 °F 85% 29.92 in 3.0 mi Calm Calm - N/A   Mostly Cloudy
11:16 AM 8.6 °F 2.0 °F 5.0 °F 85% 29.91 in 3.0 mi NE 3.5 mph - N/A   Overcast
11:36 AM 8.6 °F 2.0 °F 6.8 °F 92% 29.91 in 5.0 mi NE 3.5 mph - N/A   Overcast
11:56 AM 8.6 °F - 6.8 °F 92% 29.89 in 3.0 mi Calm Calm - N/A   Overcast
12:16 PM 8.6 °F 2.0 °F 6.8 °F 92% 29.88 in 3.0 mi NE 3.5 mph - N/A   Overcast
12:36 PM 10.4 °F 2.2 °F 8.6 °F 92% 29.89 in 5.0 mi NE 4.6 mph - N/A   Overcast
12:56 PM 8.6 °F 0.1 °F 6.8 °F 92% 29.88 in 5.0 mi East 4.6 mph - N/A   Overcast
1:16 PM 8.6 °F -2.6 °F 6.8 °F 92% 29.87 in 5.0 mi East 6.9 mph - N/A   Overcast
1:36 PM 8.6 °F -1.3 °F 6.8 °F 92% 29.86 in 2.5 mi East 5.8 mph - N/A   Overcast
1:56 PM 8.6 °F -1.3 °F 6.8 °F 92% 29.85 in 8.0 mi ENE 5.8 mph - N/A   Overcast
2:16 PM 8.6 °F -1.3 °F 6.8 °F 92% 29.85 in 10.0 mi NE 5.8 mph - N/A   Overcast
2:36 PM 8.6 °F -2.6 °F 6.8 °F 92% 29.84 in 10.0 mi ENE 6.9 mph - N/A   Overcast
2:56 PM 8.6 °F -1.3 °F 6.8 °F 92% 29.83 in 9.0 mi East 5.8 mph - N/A   Overcast
3:16 PM 8.6 °F 2.0 °F 6.8 °F 92% 29.83 in 9.0 mi ENE 3.5 mph - N/A   Overcast
3:36 PM 8.6 °F 0.1 °F 6.8 °F 92% 29.83 in 10.0 mi ENE 4.6 mph - N/A   Overcast
3:56 PM 8.6 °F 0.1 °F 6.8 °F 92% 29.82 in 10.0 mi East 4.6 mph - N/A   Overcast
4:16 PM 8.6 °F 0.1 °F 6.8 °F 92% 29.80 in 10.0 mi East 4.6 mph - N/A   Overcast
4:36 PM 8.6 °F 0.1 °F 5.0 °F 85% 29.79 in 10.0 mi East 4.6 mph - N/A   Overcast
4:56 PM 8.6 °F 0.1 °F 5.0 °F 85% 29.78 in 10.0 mi East 4.6 mph - N/A   Overcast
5:16 PM 6.8 °F -3.5 °F 3.2 °F 85% 29.79 in 10.0 mi East 5.8 mph - N/A   Overcast
5:36 PM 6.8 °F -3.5 °F 6.8 °F 100% 29.79 in 10.0 mi ENE 5.8 mph - N/A   Overcast
5:56 PM 8.6 °F -1.3 °F 6.8 °F 92% 29.77 in 10.0 mi NE 5.8 mph - N/A   Overcast
6:16 PM 8.6 °F 0.1 °F 6.8 °F 92% 29.77 in 10.0 mi ENE 4.6 mph - N/A   Overcast
6:36 PM 8.6 °F - 5.0 °F 85% 29.76 in 10.0 mi Calm Calm - N/A   Overcast
6:56 PM 6.8 °F - 6.8 °F 100% 29.75 in 10.0 mi Calm Calm - N/A   Overcast
7:16 PM 8.6 °F 2.0 °F 6.8 °F 92% 29.75 in 10.0 mi ESE 3.5 mph - N/A   Overcast
7:36 PM 8.6 °F -1.3 °F 8.6 °F 100% 29.74 in 10.0 mi NE 5.8 mph - N/A   Overcast
7:56 PM 8.6 °F 0.1 °F 6.8 °F 92% 29.73 in 10.0 mi NE 4.6 mph - N/A   Overcast
8:16 PM 8.6 °F 2.0 °F 6.8 °F 92% 29.73 in 10.0 mi NE 3.5 mph - N/A   Overcast
8:36 PM 8.6 °F 0.1 °F 8.6 °F 100% 29.72 in 10.0 mi ENE 4.6 mph - N/A   Overcast
8:56 PM 8.6 °F 0.1 °F 6.8 °F 92% 29.72 in 10.0 mi SE 4.6 mph - N/A   Overcast
9:16 PM 8.6 °F - 8.6 °F 100% 29.72 in 10.0 mi Calm Calm - N/A   Overcast
9:36 PM 8.6 °F 0.1 °F 8.6 °F 100% 29.72 in 10.0 mi NE 4.6 mph - N/A   Overcast
9:56 PM 10.4 °F 4.0 °F 8.6 °F 92% 29.71 in 10.0 mi ENE 3.5 mph - N/A   Overcast
10:16 PM 10.4 °F 4.0 °F 8.6 °F 92% 29.70 in 10.0 mi ENE 3.5 mph - N/A   Overcast
10:36 PM 10.4 °F - 8.6 °F 92% 29.70 in 10.0 mi Calm Calm - N/A   Overcast
10:56 PM 10.4 °F 4.0 °F 8.6 °F 92% 29.70 in 10.0 mi ENE 3.5 mph - N/A   Overcast
11:16 PM 10.4 °F 4.0 °F 8.6 °F 92% 29.69 in 10.0 mi ENE 3.5 mph - N/A   Overcast
11:36 PM 12.2 °F 6.1 °F 10.4 °F 92% 29.69 in 5.0 mi ENE 3.5 mph - N/A   Overcast
11:56 PM 12.2 °F 6.1 °F 10.4 °F 92% 29.69 in 4.0 mi ENE 3.5 mph - N/A   Overcast